Time,TemperatureF,DewpointF,PressureIn,WindDirection,WindDirectionDegrees,WindSpeedMPH,WindSpeedGustMPH,Humidity,HourlyPrecipIn,Conditions,Clouds,dailyrainin,SolarRadiationWatts/m^2,SoftwareType,DateUTC
2013-10-26 00:00:00,31.3,26.8,30.35,NE,44,0.0,0.0,83,0.00,,---,0.00,0.00,VWS V14.01,2013-10-26 04:00:00,
2013-10-26 00:01:00,31.3,26.8,30.35,NE,44,0.0,0.0,83,0.00,,---,0.00,0.00,VWS V14.01,2013-10-26 04:01:00,
2013-10-26 00:02:00,31.3,26.8,30.35,NE,44,0.0,0.0,83,0.00,,---,0.00,0.00,VWS V14.01,2013-10-26 04:02:00,
2013-10-26 00:03:00,31.3,26.8,30.35,NE,44,0.0,0.0,83,0.00,,---,0.00,0.00,VWS V14.01,2013-10-26 04:03:00,
2013-10-26 00:04:00,31.3,26.8,30.35,NE,44,0.0,0.0,83,0.00,,---,0.00,0.00,VWS V14.01,2013-10-26 04:04:00,
2013-10-26 00:10:00,31.3,26.8,30.35,NE,44,0.0,0.0,83,0.00,,---,0.00,0.00,VWS V14.01,2013-10-26 04:10:00,
2013-10-26 00:15:00,31.3,26.8,30.34,NE,44,0.0,0.0,83,0.00,,---,0.00,0.00,VWS V14.01,2013-10-26 04:15:00,
2013-10-26 00:20:00,31.2,26.6,30.34,NE,44,0.0,0.0,83,0.00,,---,0.00,0.00,VWS V14.01,2013-10-26 04:20:00,
2013-10-26 00:25:00,31.1,26.5,30.34,NE,44,0.0,0.0,83,0.00,,---,0.00,0.00,VWS V14.01,2013-10-26 04:25:00,
2013-10-26 00:30:00,31.0,26.5,30.34,NE,44,0.0,0.0,83,0.00,,---,0.00,0.00,VWS V14.01,2013-10-26 04:30:00,
2013-10-26 00:35:00,30.9,26.4,30.33,NE,44,0.0,0.0,83,0.00,,---,0.00,0.00,VWS V14.01,2013-10-26 04:35:00,
2013-10-26 00:40:00,30.5,26.2,30.33,NE,44,0.0,0.0,84,0.00,,---,0.00,0.00,VWS V14.01,2013-10-26 04:40:00,
2013-10-26 00:41:00,30.7,26.5,30.33,NE,44,0.0,0.0,84,0.00,,---,0.00,0.00,VWS V14.01,2013-10-26 04:41:00,
2013-10-26 00:46:00,30.5,26.2,30.33,NE,44,0.0,0.0,84,0.00,,---,0.00,0.00,VWS V14.01,2013-10-26 04:46:00,
2013-10-26 00:50:00,30.1,25.9,30.33,NE,44,0.0,0.0,84,0.00,,---,0.00,0.00,VWS V14.01,2013-10-26 04:50:00,
2013-10-26 00:51:00,30.4,25.9,30.33,NE,44,0.0,0.0,83,0.00,,---,0.00,0.00,VWS V14.01,2013-10-26 04:51:00,
2013-10-26 00:56:00,30.2,26.0,30.33,NE,44,0.0,0.0,84,0.00,,---,0.00,0.00,VWS V14.01,2013-10-26 04:56:00,
2013-10-26 01:00:00,29.8,25.6,30.32,NE,44,0.0,0.0,84,0.00,,---,0.00,0.00,VWS V14.01,2013-10-26 05:00:00,
2013-10-26 01:01:00,30.0,25.8,30.33,NE,44,0.0,0.0,84,0.00,,---,0.00,0.00,VWS V14.01,2013-10-26 05:01:00,
2013-10-26 01:06:00,29.8,25.6,30.32,NE,44,0.0,0.0,84,0.00,,---,0.00,0.00,VWS V14.01,2013-10-26 05:06:00,
2013-10-26 01:10:00,29.4,25.5,30.32,NE,44,0.0,0.0,85,0.00,,---,0.00,0.00,VWS V14.01,2013-10-26 05:10:00,
2013-10-26 01:11:00,29.6,25.4,30.32,NE,44,0.0,0.0,84,0.00,,---,0.00,0.00,VWS V14.01,2013-10-26 05:11:00,
2013-10-26 01:17:00,29.4,25.5,30.32,NE,44,0.0,0.0,85,0.00,,---,0.00,0.00,VWS V14.01,2013-10-26 05:17:00,
2013-10-26 01:20:00,28.9,25.2,30.32,NE,44,0.0,0.0,86,0.00,,---,0.00,0.00,VWS V14.01,2013-10-26 05:20:00,
2013-10-26 01:22:00,29.2,25.3,30.32,NE,44,0.0,0.0,85,0.00,,---,0.00,0.00,VWS V14.01,2013-10-26 05:22:00,
2013-10-26 01:27:00,29.0,25.4,30.32,NE,44,0.0,0.0,86,0.00,,---,0.00,0.00,VWS V14.01,2013-10-26 05:27:00,
2013-10-26 01:30:00,28.6,25.0,30.32,NE,44,0.0,0.0,86,0.00,,---,0.00,0.00,VWS V14.01,2013-10-26 05:30:00,
2013-10-26 01:32:00,28.8,25.1,30.32,NE,44,0.0,0.0,86,0.00,,---,0.00,0.00,VWS V14.01,2013-10-26 05:32:00,
2013-10-26 01:37:00,28.6,25.0,30.32,NE,44,0.0,0.0,86,0.00,,---,0.00,0.00,VWS V14.01,2013-10-26 05:37:00,
2013-10-26 01:40:00,28.3,24.9,30.32,NE,44,0.0,0.0,87,0.00,,---,0.00,0.00,VWS V14.01,2013-10-26 05:40:00,
2013-10-26 01:42:00,28.4,24.8,30.32,NE,44,0.0,0.0,86,0.00,,---,0.00,0.00,VWS V14.01,2013-10-26 05:42:00,
2013-10-26 01:47:00,28.3,24.9,30.32,NE,44,0.0,0.0,87,0.00,,---,0.00,0.00,VWS V14.01,2013-10-26 05:47:00,
2013-10-26 01:50:00,28.1,25.0,30.31,NE,44,0.0,0.0,88,0.00,,---,0.00,0.00,VWS V14.01,2013-10-26 05:50:00,
2013-10-26 01:52:00,28.1,24.7,30.32,NE,44,0.0,0.0,87,0.00,,---,0.00,0.00,VWS V14.01,2013-10-26 05:52:00,
2013-10-26 01:58:00,28.1,25.0,30.31,NE,44,0.0,0.0,88,0.00,,---,0.00,0.00,VWS V14.01,2013-10-26 05:58:00,
2013-10-26 02:00:00,28.3,25.5,30.31,NE,44,0.0,0.0,89,0.00,,---,0.00,0.00,VWS V14.01,2013-10-26 06:00:00,
2013-10-26 02:03:00,28.2,25.4,30.31,NE,44,0.0,0.0,89,0.00,,---,0.00,0.00,VWS V14.01,2013-10-26 06:03:00,
2013-10-26 02:08:00,28.3,25.5,30.32,NE,44,0.0,0.0,89,0.00,,---,0.00,0.00,VWS V14.01,2013-10-26 06:08:00,
2013-10-26 02:10:00,28.4,25.6,30.31,NE,44,0.0,0.0,89,0.00,,---,0.00,0.00,VWS V14.01,2013-10-26 06:10:00,
2013-10-26 02:13:00,28.4,25.6,30.31,NE,44,0.0,0.0,89,0.00,,---,0.00,0.00,VWS V14.01,2013-10-26 06:13:00,
2013-10-26 02:18:00,28.4,25.6,30.31,NE,44,0.0,0.0,89,0.00,,---,0.00,0.00,VWS V14.01,2013-10-26 06:18:00,
2013-10-26 02:20:00,28.6,25.8,30.31,NE,44,0.0,1.0,89,0.00,,---,0.00,0.00,VWS V14.01,2013-10-26 06:20:00,
2013-10-26 02:23:00,28.5,25.7,30.31,NE,44,0.0,0.0,89,0.00,,---,0.00,0.00,VWS V14.01,2013-10-26 06:23:00,
2013-10-26 02:28:00,28.6,25.8,30.30,NE,44,0.0,0.0,89,0.00,,---,0.00,0.00,VWS V14.01,2013-10-26 06:28:00,
2013-10-26 02:30:00,28.4,25.3,30.30,NE,44,0.0,1.0,88,0.00,,---,0.00,0.00,VWS V14.01,2013-10-26 06:30:00,
2013-10-26 02:33:00,28.5,25.7,30.30,NE,44,0.0,1.0,89,0.00,,---,0.00,0.00,VWS V14.01,2013-10-26 06:33:00,
2013-10-26 02:39:00,28.4,25.3,30.30,NE,44,0.0,0.0,88,0.00,,---,0.00,0.00,VWS V14.01,2013-10-26 06:39:00,
2013-10-26 02:40:00,28.0,24.9,30.30,NE,44,0.0,0.0,88,0.00,,---,0.00,0.00,VWS V14.01,2013-10-26 06:40:00,
2013-10-26 02:44:00,28.2,25.1,30.30,NE,44,0.0,0.0,88,0.00,,---,0.00,0.00,VWS V14.01,2013-10-26 06:44:00,
2013-10-26 02:49:00,28.0,24.9,30.30,NE,44,0.0,0.0,88,0.00,,---,0.00,0.00,VWS V14.01,2013-10-26 06:49:00,
2013-10-26 02:50:00,27.6,24.5,30.30,NE,44,0.0,0.0,88,0.00,,---,0.00,0.00,VWS V14.01,2013-10-26 06:50:00,
2013-10-26 02:54:00,27.8,24.7,30.30,NE,44,0.0,0.0,88,0.00,,---,0.00,0.00,VWS V14.01,2013-10-26 06:54:00,
2013-10-26 02:59:00,27.6,24.5,30.30,NE,44,0.0,0.0,88,0.00,,---,0.00,0.00,VWS V14.01,2013-10-26 06:59:00,
2013-10-26 03:00:00,27.3,24.2,30.30,NE,44,0.0,0.0,88,0.00,,---,0.00,0.00,VWS V14.01,2013-10-26 07:00:00,
2013-10-26 03:04:00,27.4,24.3,30.30,NE,44,0.0,0.0,88,0.00,,---,0.00,0.00,VWS V14.01,2013-10-26 07:04:00,
2013-10-26 03:09:00,27.2,24.4,30.30,NE,44,0.0,0.0,89,0.00,,---,0.00,0.00,VWS V14.01,2013-10-26 07:09:00,
2013-10-26 03:10:00,26.9,23.8,30.30,NE,44,0.0,0.0,88,0.00,,---,0.00,0.00,VWS V14.01,2013-10-26 07:10:00,
2013-10-26 03:14:00,27.0,24.2,30.30,NE,44,0.0,0.0,89,0.00,,---,0.00,0.00,VWS V14.01,2013-10-26 07:14:00,
2013-10-26 03:20:00,26.9,24.1,30.30,NE,44,0.0,0.0,89,0.00,,---,0.00,0.00,VWS V14.01,2013-10-26 07:20:00,
2013-10-26 03:25:00,26.7,23.9,30.30,NE,44,0.0,0.0,89,0.00,,---,0.00,0.00,VWS V14.01,2013-10-26 07:25:00,
2013-10-26 03:30:00,26.6,23.8,30.30,NE,44,0.0,0.0,89,0.00,,---,0.00,0.00,VWS V14.01,2013-10-26 07:30:00,
2013-10-26 03:35:00,26.4,23.6,30.29,NE,44,0.0,0.0,89,0.00,,---,0.00,0.00,VWS V14.01,2013-10-26 07:35:00,
2013-10-26 03:40:00,26.3,23.8,30.29,NE,44,0.0,0.0,90,0.00,,---,0.00,0.00,VWS V14.01,2013-10-26 07:40:00,
2013-10-26 03:45:00,26.2,23.7,30.30,NE,44,0.0,0.0,90,0.00,,---,0.00,0.00,VWS V14.01,2013-10-26 07:45:00,
2013-10-26 03:50:00,26.1,23.6,30.29,NE,44,0.0,0.0,90,0.00,,---,0.00,0.00,VWS V14.01,2013-10-26 07:50:00,
2013-10-26 03:55:00,26.0,23.5,30.29,NE,44,0.0,0.0,90,0.00,,---,0.00,0.00,VWS V14.01,2013-10-26 07:55:00,
2013-10-26 04:00:00,25.9,23.4,30.29,NE,44,0.0,0.0,90,0.00,,---,0.00,0.00,VWS V14.01,2013-10-26 08:00:00,
2013-10-26 04:06:00,25.8,23.5,30.29,NE,44,0.0,0.0,91,0.00,,---,0.00,0.00,VWS V14.01,2013-10-26 08:06:00,
2013-10-26 04:10:00,25.8,23.8,30.28,NE,44,0.0,0.0,92,0.00,,---,0.00,0.00,VWS V14.01,2013-10-26 08:10:00,
2013-10-26 04:11:00,25.9,23.6,30.28,NE,44,0.0,0.0,91,0.00,,---,0.00,0.00,VWS V14.01,2013-10-26 08:11:00,
2013-10-26 04:16:00,25.8,23.8,30.29,NE,44,0.0,0.0,92,0.00,,---,0.00,0.00,VWS V14.01,2013-10-26 08:16:00,
2013-10-26 04:20:00,25.7,23.7,30.28,NE,44,0.0,0.0,92,0.00,,---,0.00,0.00,VWS V14.01,2013-10-26 08:20:00,
2013-10-26 04:21:00,25.8,23.5,30.28,NE,44,0.0,0.0,91,0.00,,---,0.00,0.00,VWS V14.01,2013-10-26 08:21:00,
2013-10-26 04:26:00,25.8,23.5,30.28,NE,44,0.0,0.0,91,0.00,,---,0.00,0.00,VWS V14.01,2013-10-26 08:26:00,
2013-10-26 04:30:00,25.7,23.7,30.28,NE,44,0.0,0.0,92,0.00,,---,0.00,0.00,VWS V14.01,2013-10-26 08:30:00,
2013-10-26 04:31:00,25.7,23.7,30.28,NE,44,0.0,0.0,92,0.00,,---,0.00,0.00,VWS V14.01,2013-10-26 08:31:00,
2013-10-26 04:36:00,25.7,23.7,30.28,NE,44,0.0,0.0,92,0.00,,---,0.00,0.00,VWS V14.01,2013-10-26 08:36:00,
2013-10-26 04:40:00,25.8,23.8,30.27,NE,44,0.0,0.0,92,0.00,,---,0.00,0.00,VWS V14.01,2013-10-26 08:40:00,
2013-10-26 04:41:00,25.8,23.8,30.28,NE,44,0.0,0.0,92,0.00,,---,0.00,0.00,VWS V14.01,2013-10-26 08:41:00,
2013-10-26 04:46:00,25.7,23.7,30.27,NE,44,0.0,0.0,92,0.00,,---,0.00,0.00,VWS V14.01,2013-10-26 08:46:00,
2013-10-26 04:50:00,25.8,24.1,30.27,NE,44,0.0,0.0,93,0.00,,---,0.00,0.00,VWS V14.01,2013-10-26 08:50:00,
2013-10-26 04:51:00,25.8,24.1,30.27,NE,44,0.0,0.0,93,0.00,,---,0.00,0.00,VWS V14.01,2013-10-26 08:51:00,
2013-10-26 04:56:00,25.8,24.1,30.27,NE,44,0.0,0.0,93,0.00,,---,0.00,0.00,VWS V14.01,2013-10-26 08:56:00,
2013-10-26 05:00:00,25.7,23.7,30.27,NE,44,0.0,0.0,92,0.00,,---,0.00,0.00,VWS V14.01,2013-10-26 09:00:00,
2013-10-26 05:02:00,25.8,23.8,30.28,NE,44,0.0,0.0,92,0.00,,---,0.00,0.00,VWS V14.01,2013-10-26 09:02:00,
2013-10-26 05:07:00,25.7,23.7,30.27,NE,44,0.0,0.0,92,0.00,,---,0.00,0.00,VWS V14.01,2013-10-26 09:07:00,
2013-10-26 05:10:00,25.6,23.6,30.28,NE,44,0.0,0.0,92,0.00,,---,0.00,0.00,VWS V14.01,2013-10-26 09:10:00,
2013-10-26 05:12:00,25.7,23.7,30.27,NE,44,0.0,0.0,92,0.00,,---,0.00,0.00,VWS V14.01,2013-10-26 09:12:00,
2013-10-26 05:17:00,25.7,23.7,30.28,NE,44,0.0,0.0,92,0.00,,---,0.00,0.00,VWS V14.01,2013-10-26 09:17:00,
2013-10-26 05:20:00,25.5,23.5,30.28,NE,44,0.0,0.0,92,0.00,,---,0.00,0.00,VWS V14.01,2013-10-26 09:20:00,
2013-10-26 05:22:00,25.6,23.6,30.28,NE,44,0.0,0.0,92,0.00,,---,0.00,0.00,VWS V14.01,2013-10-26 09:22:00,
2013-10-26 05:27:00,25.5,23.5,30.28,NE,44,0.0,0.0,92,0.00,,---,0.00,0.00,VWS V14.01,2013-10-26 09:27:00,
2013-10-26 05:30:00,26.0,24.3,30.28,NE,44,0.0,0.0,93,0.00,,---,0.00,0.00,VWS V14.01,2013-10-26 09:30:00,
2013-10-26 05:32:00,25.7,24.0,30.28,NE,44,0.0,0.0,93,0.00,,---,0.00,0.00,VWS V14.01,2013-10-26 09:32:00,
2013-10-26 05:37:00,25.9,24.2,30.28,NE,44,0.0,0.0,93,0.00,,---,0.00,0.00,VWS V14.01,2013-10-26 09:37:00,
2013-10-26 05:40:00,26.2,24.7,30.28,NE,44,0.0,0.0,94,0.00,,---,0.00,0.00,VWS V14.01,2013-10-26 09:40:00,
2013-10-26 05:42:00,26.1,24.6,30.27,NE,44,0.0,0.0,94,0.00,,---,0.00,0.00,VWS V14.01,2013-10-26 09:42:00,
2013-10-26 05:47:00,26.1,24.6,30.28,NE,44,0.0,0.0,94,0.00,,---,0.00,0.00,VWS V14.01,2013-10-26 09:47:00,
2013-10-26 05:50:00,26.2,24.7,30.27,NE,44,0.0,0.0,94,0.00,,---,0.00,0.00,VWS V14.01,2013-10-26 09:50:00,
2013-10-26 05:52:00,26.2,24.7,30.27,NE,44,0.0,0.0,94,0.00,,---,0.00,0.00,VWS V14.01,2013-10-26 09:52:00,
2013-10-26 05:57:00,26.2,24.7,30.27,NE,44,0.0,0.0,94,0.00,,---,0.00,0.00,VWS V14.01,2013-10-26 09:57:00,
2013-10-26 06:00:00,26.1,24.4,30.27,NE,44,0.0,0.0,93,0.00,,---,0.00,0.00,VWS V14.01,2013-10-26 10:00:00,
2013-10-26 06:03:00,26.2,24.7,30.27,NE,44,0.0,0.0,94,0.00,,---,0.00,0.00,VWS V14.01,2013-10-26 10:03:00,
2013-10-26 06:08:00,26.1,24.4,30.27,NE,44,0.0,0.0,93,0.00,,---,0.00,0.00,VWS V14.01,2013-10-26 10:08:00,
2013-10-26 06:10:00,25.8,24.1,30.28,NE,44,0.0,0.0,93,0.00,,---,0.00,0.00,VWS V14.01,2013-10-26 10:10:00,
2013-10-26 06:13:00,26.0,24.3,30.28,NE,44,0.0,0.0,93,0.00,,---,0.00,0.00,VWS V14.01,2013-10-26 10:13:00,
2013-10-26 06:18:00,25.8,24.1,30.28,NE,44,0.0,0.0,93,0.00,,---,0.00,0.00,VWS V14.01,2013-10-26 10:18:00,
2013-10-26 06:20:00,25.7,24.0,30.28,NE,44,0.0,0.0,93,0.00,,---,0.00,0.00,VWS V14.01,2013-10-26 10:20:00,
2013-10-26 06:23:00,25.7,24.0,30.28,NE,44,0.0,0.0,93,0.00,,---,0.00,0.00,VWS V14.01,2013-10-26 10:23:00,
2013-10-26 06:28:00,25.7,24.0,30.28,NE,44,0.0,0.0,93,0.00,,---,0.00,0.00,VWS V14.01,2013-10-26 10:28:00,
2013-10-26 06:30:00,25.4,23.7,30.28,NE,44,0.0,0.0,93,0.00,,---,0.00,0.00,VWS V14.01,2013-10-26 10:30:00,
2013-10-26 06:33:00,25.5,23.8,30.28,NE,44,0.0,0.0,93,0.00,,---,0.00,0.00,VWS V14.01,2013-10-26 10:33:00,
2013-10-26 06:38:00,25.4,23.7,30.28,NE,44,0.0,0.0,93,0.00,,---,0.00,0.00,VWS V14.01,2013-10-26 10:38:00,
2013-10-26 06:40:00,25.4,23.9,30.28,NE,44,0.0,0.0,94,0.00,,---,0.00,0.00,VWS V14.01,2013-10-26 10:40:00,
2013-10-26 06:43:00,25.4,23.7,30.29,NE,44,0.0,0.0,93,0.00,,---,0.00,0.00,VWS V14.01,2013-10-26 10:43:00,
2013-10-26 06:48:00,25.5,24.0,30.28,NE,44,0.0,0.0,94,0.00,,---,0.00,0.00,VWS V14.01,2013-10-26 10:48:00,
2013-10-26 06:50:00,25.6,24.1,30.29,NE,44,0.0,0.0,94,0.00,,---,0.00,0.00,VWS V14.01,2013-10-26 10:50:00,
2013-10-26 06:53:00,25.6,24.1,30.29,NE,44,0.0,0.0,94,0.00,,---,0.00,0.00,VWS V14.01,2013-10-26 10:53:00,
2013-10-26 06:59:00,25.6,24.1,30.28,NE,44,0.0,0.0,94,0.00,,---,0.00,0.00,VWS V14.01,2013-10-26 10:59:00,
2013-10-26 07:00:00,25.6,24.1,30.28,NE,44,0.0,0.0,94,0.00,,---,0.00,0.00,VWS V14.01,2013-10-26 11:00:00,
2013-10-26 07:04:00,25.6,24.1,30.29,NE,44,0.0,0.0,94,0.00,,---,0.00,0.00,VWS V14.01,2013-10-26 11:04:00,
2013-10-26 07:09:00,25.5,24.0,30.29,NE,44,0.0,0.0,94,0.00,,---,0.00,0.00,VWS V14.01,2013-10-26 11:09:00,
2013-10-26 07:10:00,25.3,23.6,30.28,NE,44,0.0,0.0,93,0.00,,---,0.00,0.00,VWS V14.01,2013-10-26 11:10:00,
2013-10-26 07:14:00,25.4,23.9,30.28,NE,44,0.0,0.0,94,0.00,,---,0.00,0.00,VWS V14.01,2013-10-26 11:14:00,
2013-10-26 07:19:00,25.3,23.6,30.28,NE,44,0.0,0.0,93,0.00,,---,0.00,0.00,VWS V14.01,2013-10-26 11:19:00,
2013-10-26 07:20:00,25.1,23.4,30.28,NE,44,0.0,0.0,93,0.00,,---,0.00,0.00,VWS V14.01,2013-10-26 11:20:00,
2013-10-26 07:24:00,25.2,23.5,30.28,NE,44,0.0,0.0,93,0.00,,---,0.00,0.00,VWS V14.01,2013-10-26 11:24:00,
2013-10-26 07:29:00,25.0,23.3,30.28,NE,44,0.0,0.0,93,0.00,,---,0.00,0.00,VWS V14.01,2013-10-26 11:29:00,
2013-10-26 07:30:00,24.8,23.1,30.28,NE,44,0.0,0.0,93,0.00,,---,0.00,0.00,VWS V14.01,2013-10-26 11:30:00,
2013-10-26 07:34:00,24.8,23.1,30.28,NE,44,0.0,0.0,93,0.00,,---,0.00,0.00,VWS V14.01,2013-10-26 11:34:00,
2013-10-26 07:39:00,24.8,23.1,30.28,NE,44,0.0,0.0,93,0.00,,---,0.00,0.00,VWS V14.01,2013-10-26 11:39:00,
2013-10-26 07:40:00,24.7,23.0,30.28,NE,44,0.0,0.0,93,0.00,,---,0.00,0.00,VWS V14.01,2013-10-26 11:40:00,
2013-10-26 07:44:00,24.7,23.0,30.28,NE,44,0.0,0.0,93,0.00,,---,0.00,0.00,VWS V14.01,2013-10-26 11:44:00,
2013-10-26 07:49:00,24.7,23.0,30.28,NE,44,0.0,0.0,93,0.00,,---,0.00,5.00,VWS V14.01,2013-10-26 11:49:00,
2013-10-26 07:50:00,24.5,22.8,30.28,NE,44,0.0,0.0,93,0.00,,---,0.00,7.00,VWS V14.01,2013-10-26 11:50:00,
2013-10-26 07:55:00,24.6,22.9,30.28,NE,44,0.0,0.0,93,0.00,,---,0.00,5.00,VWS V14.01,2013-10-26 11:55:00,
2013-10-26 08:00:00,24.5,22.8,30.29,NE,44,0.0,0.0,93,0.00,,---,0.00,9.00,VWS V14.01,2013-10-26 12:00:00,
2013-10-26 08:05:00,24.4,22.7,30.29,NE,44,0.0,0.0,93,0.00,,---,0.00,11.00,VWS V14.01,2013-10-26 12:05:00,
2013-10-26 08:10:00,24.4,22.7,30.28,NE,44,0.0,0.0,93,0.00,,---,0.00,11.00,VWS V14.01,2013-10-26 12:10:00,
2013-10-26 08:15:00,24.3,22.6,30.28,NE,44,0.0,0.0,93,0.00,,---,0.00,12.00,VWS V14.01,2013-10-26 12:15:00,
2013-10-26 08:20:00,24.4,22.9,30.28,NE,44,0.0,0.0,94,0.00,,---,0.00,14.00,VWS V14.01,2013-10-26 12:20:00,
2013-10-26 08:25:00,24.6,23.1,30.28,NE,44,0.0,0.0,94,0.00,,---,0.00,16.00,VWS V14.01,2013-10-26 12:25:00,
2013-10-26 08:30:00,24.8,23.3,30.28,NE,44,0.0,0.0,94,0.00,,---,0.00,16.00,VWS V14.01,2013-10-26 12:30:00,
2013-10-26 08:35:00,24.9,23.4,30.27,NE,44,0.0,0.0,94,0.00,,---,0.00,18.00,VWS V14.01,2013-10-26 12:35:00,
2013-10-26 08:40:00,25.0,23.8,30.28,NE,44,0.0,0.0,95,0.00,,---,0.00,18.00,VWS V14.01,2013-10-26 12:40:00,
2013-10-26 08:45:00,25.2,24.0,30.28,NE,44,0.0,0.0,95,0.00,,---,0.00,19.00,VWS V14.01,2013-10-26 12:45:00,
2013-10-26 08:50:00,25.5,24.3,30.28,NE,44,0.0,0.0,95,0.00,,---,0.00,19.00,VWS V14.01,2013-10-26 12:50:00,
2013-10-26 08:51:00,25.3,24.1,30.28,NE,44,0.0,0.0,95,0.00,,---,0.00,19.00,VWS V14.01,2013-10-26 12:51:00,
2013-10-26 08:56:00,25.4,24.2,30.28,NE,44,0.0,0.0,95,0.00,,---,0.00,19.00,VWS V14.01,2013-10-26 12:56:00,
2013-10-26 09:00:00,25.6,24.4,30.29,NE,44,0.0,0.0,95,0.00,,---,0.00,21.00,VWS V14.01,2013-10-26 13:00:00,
2013-10-26 09:01:00,25.5,24.3,30.28,NE,44,0.0,0.0,95,0.00,,---,0.00,21.00,VWS V14.01,2013-10-26 13:01:00,
2013-10-26 09:06:00,25.6,24.4,30.29,NE,44,0.0,0.0,95,0.00,,---,0.00,21.00,VWS V14.01,2013-10-26 13:06:00,
2013-10-26 09:10:00,25.9,24.7,30.29,NE,44,0.0,0.0,95,0.00,,---,0.00,23.00,VWS V14.01,2013-10-26 13:10:00,
2013-10-26 09:11:00,25.7,24.5,30.29,NE,44,0.0,0.0,95,0.00,,---,0.00,21.00,VWS V14.01,2013-10-26 13:11:00,
2013-10-26 09:16:00,25.9,24.7,30.29,NE,44,0.0,0.0,95,0.00,,---,0.00,21.00,VWS V14.01,2013-10-26 13:16:00,
2013-10-26 09:20:00,26.5,25.3,30.29,NE,44,0.0,0.0,95,0.00,,---,0.00,23.00,VWS V14.01,2013-10-26 13:20:00,
2013-10-26 09:21:00,26.1,24.9,30.29,NE,44,0.0,0.0,95,0.00,,---,0.00,23.00,VWS V14.01,2013-10-26 13:21:00,
2013-10-26 09:26:00,26.4,25.2,30.29,NE,44,0.0,0.0,95,0.00,,---,0.00,23.00,VWS V14.01,2013-10-26 13:26:00,
2013-10-26 09:30:00,27.0,26.0,30.29,NE,44,0.0,0.0,96,0.00,,---,0.00,25.00,VWS V14.01,2013-10-26 13:30:00,
2013-10-26 09:31:00,26.7,25.5,30.28,NE,44,0.0,0.0,95,0.00,,---,0.00,23.00,VWS V14.01,2013-10-26 13:31:00,
2013-10-26 09:36:00,27.0,25.8,30.29,NE,44,0.0,0.0,95,0.00,,---,0.00,25.00,VWS V14.01,2013-10-26 13:36:00,
2013-10-26 09:40:00,27.6,26.6,30.29,NE,44,0.0,0.0,96,0.00,,---,0.00,26.00,VWS V14.01,2013-10-26 13:40:00,
2013-10-26 09:41:00,27.2,26.0,30.29,NE,44,0.0,0.0,95,0.00,,---,0.00,42.00,VWS V14.01,2013-10-26 13:41:00,
2013-10-26 09:46:00,27.5,26.5,30.29,NE,44,0.0,0.0,96,0.00,,---,0.00,28.00,VWS V14.01,2013-10-26 13:46:00,
2013-10-26 09:50:00,28.3,27.3,30.28,NE,44,0.0,0.0,96,0.00,,---,0.00,28.00,VWS V14.01,2013-10-26 13:50:00,
2013-10-26 09:51:00,27.8,26.8,30.28,NE,44,0.0,0.0,96,0.00,,---,0.00,26.00,VWS V14.01,2013-10-26 13:51:00,
2013-10-26 09:57:00,28.3,27.3,30.28,NE,44,0.0,0.0,96,0.00,,---,0.00,28.00,VWS V14.01,2013-10-26 13:57:00,
2013-10-26 10:00:00,29.4,28.4,30.29,NE,44,0.0,0.0,96,0.00,,---,0.00,28.00,VWS V14.01,2013-10-26 14:00:00,
2013-10-26 10:02:00,28.8,27.8,30.29,NE,44,0.0,0.0,96,0.00,,---,0.00,26.00,VWS V14.01,2013-10-26 14:02:00,
2013-10-26 10:07:00,29.3,28.3,30.29,NE,44,0.0,0.0,96,0.00,,---,0.00,28.00,VWS V14.01,2013-10-26 14:07:00,
2013-10-26 10:10:00,30.4,29.4,30.28,NE,44,0.0,1.0,96,0.00,,---,0.00,28.00,VWS V14.01,2013-10-26 14:10:00,
2013-10-26 10:12:00,29.9,28.9,30.29,NE,44,0.0,0.0,96,0.00,,---,0.00,28.00,VWS V14.01,2013-10-26 14:12:00,
2013-10-26 10:17:00,30.3,29.3,30.28,NE,44,0.0,0.0,96,0.00,,---,0.00,28.00,VWS V14.01,2013-10-26 14:17:00,
2013-10-26 10:20:00,31.2,30.2,30.28,NE,44,0.0,0.0,96,0.00,,---,0.00,28.00,VWS V14.01,2013-10-26 14:20:00,
2013-10-26 10:22:00,30.8,29.8,30.28,NE,44,0.0,0.0,96,0.00,,---,0.00,30.00,VWS V14.01,2013-10-26 14:22:00,
2013-10-26 10:27:00,31.2,30.2,30.28,NE,44,0.0,0.0,96,0.00,,---,0.00,28.00,VWS V14.01,2013-10-26 14:27:00,
2013-10-26 10:30:00,31.9,30.9,30.28,NE,44,0.0,1.0,96,0.00,,---,0.00,32.00,VWS V14.01,2013-10-26 14:30:00,
2013-10-26 10:32:00,31.4,30.4,30.28,NE,44,0.0,0.0,96,0.00,,---,0.00,30.00,VWS V14.01,2013-10-26 14:32:00,
2013-10-26 10:37:00,31.9,30.9,30.28,NE,44,0.0,1.0,96,0.00,,---,0.00,32.00,VWS V14.01,2013-10-26 14:37:00,
2013-10-26 10:40:00,33.0,32.0,30.28,NE,44,0.0,3.0,96,0.00,,---,0.00,74.00,VWS V14.01,2013-10-26 14:40:00,
2013-10-26 10:42:00,32.5,31.5,30.28,NE,44,0.0,3.0,96,0.00,,---,0.00,37.00,VWS V14.01,2013-10-26 14:42:00,
2013-10-26 10:47:00,33.0,32.0,30.28,NE,44,0.0,3.0,96,0.00,,---,0.00,62.00,VWS V14.01,2013-10-26 14:47:00,
2013-10-26 10:50:00,33.9,32.6,30.27,NE,44,0.0,2.0,95,0.00,,---,0.00,51.00,VWS V14.01,2013-10-26 14:50:00,
2013-10-26 10:53:00,33.5,32.5,30.28,NE,44,0.0,2.0,96,0.00,,---,0.00,54.00,VWS V14.01,2013-10-26 14:53:00,
2013-10-26 10:58:00,33.9,32.6,30.28,NE,44,0.0,0.0,95,0.00,,---,0.00,51.00,VWS V14.01,2013-10-26 14:58:00,
2013-10-26 11:00:00,34.8,32.7,30.28,NE,44,0.0,2.0,92,0.01,,---,0.01,466.00,VWS V14.01,2013-10-26 15:00:00,
2013-10-26 11:03:00,34.3,32.8,30.28,NE,44,0.0,1.0,94,0.00,,---,0.00,49.00,VWS V14.01,2013-10-26 15:03:00,
2013-10-26 11:08:00,34.8,32.7,30.27,NE,44,0.0,0.0,92,0.01,,---,0.01,466.00,VWS V14.01,2013-10-26 15:08:00,
2013-10-26 11:10:00,36.3,33.4,30.27,NE,40,0.0,3.0,89,0.01,,---,0.01,538.00,VWS V14.01,2013-10-26 15:10:00,
2013-10-26 11:13:00,35.6,33.2,30.27,NE,40,2.0,3.0,91,0.01,,---,0.01,522.00,VWS V14.01,2013-10-26 15:13:00,
2013-10-26 11:18:00,36.4,33.5,30.27,NE,40,0.0,0.0,89,0.01,,---,0.01,538.00,VWS V14.01,2013-10-26 15:18:00,
2013-10-26 11:20:00,38.3,35.1,30.27,NE,40,0.0,3.0,88,0.01,,---,0.01,564.00,VWS V14.01,2013-10-26 15:20:00,
2013-10-26 11:23:00,37.4,34.5,30.27,NE,40,0.0,3.0,89,0.01,,---,0.01,554.00,VWS V14.01,2013-10-26 15:23:00,
2013-10-26 11:28:00,38.5,35.3,30.27,NE,40,0.0,2.0,88,0.01,,---,0.01,566.00,VWS V14.01,2013-10-26 15:28:00,
2013-10-26 11:30:00,40.4,35.3,30.26,WSW,240,0.0,5.0,82,0.01,,---,0.01,587.00,VWS V14.01,2013-10-26 15:30:00,
2013-10-26 11:33:00,39.5,35.1,30.27,NE,40,1.0,2.0,84,0.01,,---,0.01,577.00,VWS V14.01,2013-10-26 15:33:00,
2013-10-26 11:39:00,40.6,35.8,30.26,WSW,240,0.0,0.0,83,0.01,,---,0.01,589.00,VWS V14.01,2013-10-26 15:39:00,
2013-10-26 11:40:00,42.2,34.5,30.26,SW,216,6.0,6.0,74,0.01,,---,0.01,608.00,VWS V14.01,2013-10-26 15:40:00,
2013-10-26 11:44:00,41.5,35.5,30.26,WSW,243,5.0,5.0,79,0.01,,---,0.01,601.00,VWS V14.01,2013-10-26 15:44:00,
2013-10-26 11:49:00,42.3,34.6,30.26,WSW,250,0.0,6.0,74,0.01,,---,0.01,610.00,VWS V14.01,2013-10-26 15:49:00,
2013-10-26 11:50:00,43.7,33.5,30.26,NW,305,1.0,7.0,67,0.01,,---,0.01,629.00,VWS V14.01,2013-10-26 15:50:00,
2013-10-26 11:54:00,43.2,34.1,30.26,WSW,247,3.0,7.0,70,0.01,,---,0.01,622.00,VWS V14.01,2013-10-26 15:54:00,
2013-10-26 11:59:00,43.9,34.0,30.26,WNW,293,1.0,5.0,68,0.01,,---,0.01,631.00,VWS V14.01,2013-10-26 15:59:00,
2013-10-26 12:00:00,44.8,34.2,30.25,WSW,240,3.0,7.0,66,0.01,,---,0.01,647.00,VWS V14.01,2013-10-26 16:00:00,
2013-10-26 12:04:00,44.5,35.0,30.25,SW,236,2.0,7.0,69,0.01,,---,0.01,640.00,VWS V14.01,2013-10-26 16:04:00,
2013-10-26 12:09:00,44.9,33.5,30.25,WSW,243,6.0,15.0,64,0.00,,---,0.01,647.00,VWS V14.01,2013-10-26 16:09:00,
2013-10-26 12:10:00,45.2,33.0,30.25,WSW,250,3.0,15.0,62,0.00,,---,0.01,663.00,VWS V14.01,2013-10-26 16:10:00,
2013-10-26 12:14:00,45.1,33.3,30.25,WNW,294,6.0,15.0,63,0.00,,---,0.01,657.00,VWS V14.01,2013-10-26 16:14:00,
2013-10-26 12:19:00,45.2,33.0,30.25,WSW,247,4.0,6.0,62,0.00,,---,0.01,666.00,VWS V14.01,2013-10-26 16:19:00,
2013-10-26 12:20:00,45.7,33.4,30.24,WSW,244,6.0,10.0,62,0.00,,---,0.01,675.00,VWS V14.01,2013-10-26 16:20:00,
2013-10-26 12:25:00,45.5,33.2,30.24,WSW,242,2.0,10.0,62,0.00,,---,0.01,671.00,VWS V14.01,2013-10-26 16:25:00,
2013-10-26 12:30:00,45.9,33.2,30.24,WNW,291,1.0,7.0,61,0.00,,---,0.01,675.00,VWS V14.01,2013-10-26 16:30:00,
2013-10-26 12:35:00,46.1,33.0,30.23,WNW,290,5.0,9.0,60,0.00,,---,0.01,680.00,VWS V14.01,2013-10-26 16:35:00,
2013-10-26 12:40:00,46.5,33.8,30.23,SW,236,5.0,6.0,61,0.00,,---,0.01,686.00,VWS V14.01,2013-10-26 16:40:00,
2013-10-26 12:45:00,46.7,33.2,30.22,SW,229,2.0,14.0,59,0.00,,---,0.01,691.00,VWS V14.01,2013-10-26 16:45:00,
2013-10-26 12:50:00,46.9,32.9,30.22,WNW,282,3.0,10.0,58,0.00,,---,0.01,689.00,VWS V14.01,2013-10-26 16:50:00,
2013-10-26 12:55:00,47.3,33.7,30.22,West,268,1.0,10.0,59,0.00,,---,0.01,696.00,VWS V14.01,2013-10-26 16:55:00,
2013-10-26 13:00:00,47.8,33.3,30.21,West,271,0.0,9.0,57,0.00,,---,0.01,701.00,VWS V14.01,2013-10-26 17:00:00,
2013-10-26 13:05:00,48.1,33.6,30.21,SW,229,3.0,9.0,57,0.00,,---,0.01,705.00,VWS V14.01,2013-10-26 17:05:00,
2013-10-26 13:10:00,48.5,34.0,30.20,West,265,0.0,5.0,57,0.00,,---,0.01,705.00,VWS V14.01,2013-10-26 17:10:00,
2013-10-26 13:16:00,48.6,32.3,30.20,WSW,244,2.0,13.0,53,0.00,,---,0.01,707.00,VWS V14.01,2013-10-26 17:16:00,
2013-10-26 13:20:00,49.3,33.4,30.19,South,172,1.0,10.0,54,0.00,,---,0.01,707.00,VWS V14.01,2013-10-26 17:20:00,
2013-10-26 13:21:00,48.6,33.2,30.19,WNW,285,1.0,10.0,55,0.00,,---,0.01,707.00,VWS V14.01,2013-10-26 17:21:00,
2013-10-26 13:26:00,49.1,34.1,30.19,WSW,246,2.0,10.0,56,0.00,,---,0.01,707.00,VWS V14.01,2013-10-26 17:26:00,
2013-10-26 13:30:00,49.7,32.8,30.18,WSW,252,1.0,12.0,52,0.00,,---,0.01,700.00,VWS V14.01,2013-10-26 17:30:00,
2013-10-26 13:31:00,49.5,32.6,30.19,WSW,252,2.0,12.0,52,0.00,,---,0.01,705.00,VWS V14.01,2013-10-26 17:31:00,
2013-10-26 13:36:00,49.7,32.8,30.18,NNW,342,5.0,12.0,52,0.00,,---,0.01,703.00,VWS V14.01,2013-10-26 17:36:00,
2013-10-26 13:40:00,50.2,30.8,30.18,WNW,302,4.0,12.0,47,0.00,,---,0.01,698.00,VWS V14.01,2013-10-26 17:40:00,
2013-10-26 13:41:00,50.1,33.2,30.18,West,266,1.0,7.0,52,0.00,,---,0.01,701.00,VWS V14.01,2013-10-26 17:41:00,
2013-10-26 13:46:00,50.3,31.4,30.17,NW,306,8.0,12.0,48,0.00,,---,0.01,701.00,VWS V14.01,2013-10-26 17:46:00,
2013-10-26 13:50:00,50.4,31.5,30.17,WSW,248,3.0,12.0,48,0.00,,---,0.01,691.00,VWS V14.01,2013-10-26 17:50:00,
2013-10-26 13:51:00,50.1,32.2,30.18,West,260,2.0,11.0,50,0.00,,---,0.01,696.00,VWS V14.01,2013-10-26 17:51:00,
2013-10-26 13:57:00,50.4,31.5,30.17,WNW,298,4.0,12.0,48,0.00,,---,0.01,693.00,VWS V14.01,2013-10-26 17:57:00,
2013-10-26 14:00:00,50.5,31.6,30.17,SW,223,1.0,14.0,48,0.00,,---,0.01,684.00,VWS V14.01,2013-10-26 18:00:00,
2013-10-26 14:02:00,50.4,31.0,30.17,WSW,240,2.0,11.0,47,0.00,,---,0.01,686.00,VWS V14.01,2013-10-26 18:02:00,
2013-10-26 14:07:00,50.5,31.6,30.17,West,273,3.0,14.0,48,0.00,,---,0.01,684.00,VWS V14.01,2013-10-26 18:07:00,
2013-10-26 14:10:00,51.0,31.0,30.17,WSW,238,7.0,13.0,46,0.00,,---,0.01,673.00,VWS V14.01,2013-10-26 18:10:00,
2013-10-26 14:12:00,50.8,31.3,30.17,South,169,6.0,13.0,47,0.00,,---,0.01,680.00,VWS V14.01,2013-10-26 18:12:00,
2013-10-26 14:17:00,51.0,31.0,30.17,SW,231,2.0,13.0,46,0.00,,---,0.01,673.00,VWS V14.01,2013-10-26 18:17:00,
2013-10-26 14:20:00,51.5,31.4,30.16,SW,232,2.0,12.0,46,0.00,,---,0.01,663.00,VWS V14.01,2013-10-26 18:20:00,
2013-10-26 14:22:00,51.3,31.2,30.16,WSW,238,3.0,11.0,46,0.00,,---,0.01,673.00,VWS V14.01,2013-10-26 18:22:00,
2013-10-26 14:27:00,51.5,31.4,30.16,WSW,239,1.0,12.0,46,0.00,,---,0.01,663.00,VWS V14.01,2013-10-26 18:27:00,
2013-10-26 14:30:00,52.0,30.8,30.15,SW,236,1.0,13.0,44,0.00,,---,0.01,652.00,VWS V14.01,2013-10-26 18:30:00,
2013-10-26 14:32:00,51.6,31.5,30.15,SW,227,5.0,13.0,46,0.00,,---,0.01,659.00,VWS V14.01,2013-10-26 18:32:00,
2013-10-26 14:37:00,52.0,30.8,30.15,SW,236,1.0,13.0,44,0.00,,---,0.01,652.00,VWS V14.01,2013-10-26 18:37:00,
2013-10-26 14:40:00,52.8,32.1,30.15,SW,233,3.0,9.0,45,0.00,,---,0.01,642.00,VWS V14.01,2013-10-26 18:40:00,
2013-10-26 14:43:00,52.2,32.1,30.15,WSW,240,3.0,9.0,46,0.00,,---,0.01,649.00,VWS V14.01,2013-10-26 18:43:00,
2013-10-26 14:48:00,52.9,32.2,30.15,SW,236,2.0,3.0,45,0.00,,---,0.01,642.00,VWS V14.01,2013-10-26 18:48:00,
2013-10-26 14:50:00,53.6,31.7,30.14,WNW,290,0.0,9.0,43,0.00,,---,0.01,573.00,VWS V14.01,2013-10-26 18:50:00,
2013-10-26 14:53:00,53.3,31.4,30.14,West,259,1.0,9.0,43,0.00,,---,0.01,631.00,VWS V14.01,2013-10-26 18:53:00,
2013-10-26 14:58:00,53.6,31.7,30.14,WNW,294,1.0,3.0,43,0.00,,---,0.01,608.00,VWS V14.01,2013-10-26 18:58:00,
2013-10-26 15:00:00,54.0,30.9,30.15,West,267,2.0,8.0,41,0.00,,---,0.01,578.00,VWS V14.01,2013-10-26 19:00:00,
2013-10-26 15:03:00,53.9,31.4,30.14,WNW,282,7.0,7.0,42,0.00,,---,0.01,619.00,VWS V14.01,2013-10-26 19:03:00,
2013-10-26 15:08:00,54.0,30.9,30.14,SW,236,3.0,5.0,41,0.00,,---,0.01,578.00,VWS V14.01,2013-10-26 19:08:00,
2013-10-26 15:10:00,54.1,29.7,30.14,WNW,292,3.0,11.0,39,0.00,,---,0.01,580.00,VWS V14.01,2013-10-26 19:10:00,
2013-10-26 15:13:00,54.1,29.1,30.14,WNW,286,1.0,11.0,38,0.00,,---,0.01,601.00,VWS V14.01,2013-10-26 19:13:00,
2013-10-26 15:18:00,54.1,29.1,30.14,SSE,161,0.0,10.0,38,0.00,,---,0.01,563.00,VWS V14.01,2013-10-26 19:18:00,
2013-10-26 15:20:00,54.0,29.0,30.14,SW,232,5.0,10.0,38,0.00,,---,0.01,290.00,VWS V14.01,2013-10-26 19:20:00,
2013-10-26 15:24:00,54.1,29.1,30.14,South,180,0.0,10.0,38,0.00,,---,0.01,606.00,VWS V14.01,2013-10-26 19:24:00,
2013-10-26 15:29:00,53.9,28.9,30.14,SSW,213,3.0,6.0,38,0.00,,---,0.01,302.00,VWS V14.01,2013-10-26 19:29:00,
2013-10-26 15:30:00,53.6,29.9,30.14,WSW,242,7.0,11.0,40,0.00,,---,0.01,441.00,VWS V14.01,2013-10-26 19:30:00,
2013-10-26 15:34:00,53.5,29.2,30.14,SSE,162,4.0,11.0,39,0.00,,---,0.01,359.00,VWS V14.01,2013-10-26 19:34:00,
2013-10-26 15:39:00,53.7,30.0,30.14,SW,235,4.0,7.0,40,0.00,,---,0.01,348.00,VWS V14.01,2013-10-26 19:39:00,
2013-10-26 15:40:00,53.9,28.9,30.13,WSW,239,0.0,10.0,38,0.00,,---,0.01,204.00,VWS V14.01,2013-10-26 19:40:00,
2013-10-26 15:44:00,54.0,29.6,30.13,WNW,282,3.0,10.0,39,0.00,,---,0.01,227.00,VWS V14.01,2013-10-26 19:44:00,
2013-10-26 15:49:00,53.8,29.4,30.13,NW,308,0.0,3.0,39,0.00,,---,0.01,195.00,VWS V14.01,2013-10-26 19:49:00,
2013-10-26 15:50:00,53.5,29.8,30.12,WSW,242,1.0,10.0,40,0.00,,---,0.01,221.00,VWS V14.01,2013-10-26 19:50:00,
2013-10-26 15:54:00,53.6,29.9,30.13,SW,220,4.0,10.0,40,0.00,,---,0.01,225.00,VWS V14.01,2013-10-26 19:54:00,
2013-10-26 15:59:00,53.4,30.3,30.12,WSW,238,4.0,7.0,41,0.00,,---,0.01,213.00,VWS V14.01,2013-10-26 19:59:00,
2013-10-26 16:00:00,53.4,30.9,30.12,SSW,205,2.0,7.0,42,0.00,,---,0.01,171.00,VWS V14.01,2013-10-26 20:00:00,
2013-10-26 16:04:00,53.4,30.9,30.12,SW,234,3.0,7.0,42,0.00,,---,0.01,206.00,VWS V14.01,2013-10-26 20:04:00,
2013-10-26 16:10:00,53.3,31.4,30.12,WSW,238,0.0,5.0,43,0.00,,---,0.01,149.00,VWS V14.01,2013-10-26 20:10:00,
2013-10-26 16:15:00,53.2,31.3,30.12,SW,231,6.0,12.0,43,0.00,,---,0.01,127.00,VWS V14.01,2013-10-26 20:15:00,
2013-10-26 16:20:00,53.0,30.5,30.12,SSW,207,0.0,7.0,42,0.00,,---,0.01,113.00,VWS V14.01,2013-10-26 20:20:00,
2013-10-26 16:25:00,52.9,29.9,30.12,SSW,196,1.0,13.0,41,0.00,,---,0.01,76.00,VWS V14.01,2013-10-26 20:25:00,
2013-10-26 16:30:00,52.8,30.4,30.12,SW,214,3.0,5.0,42,0.00,,---,0.01,63.00,VWS V14.01,2013-10-26 20:30:00,
2013-10-26 16:35:00,52.6,30.8,30.12,West,272,0.0,5.0,43,0.00,,---,0.01,62.00,VWS V14.01,2013-10-26 20:35:00,
2013-10-26 16:40:00,52.4,30.0,30.12,SW,223,2.0,11.0,42,0.00,,---,0.01,76.00,VWS V14.01,2013-10-26 20:40:00,
2013-10-26 16:45:00,52.3,29.3,30.11,WSW,238,2.0,11.0,41,0.00,,---,0.01,97.00,VWS V14.01,2013-10-26 20:45:00,
2013-10-26 16:50:00,52.3,29.9,30.11,WSW,252,1.0,5.0,42,0.00,,---,0.01,95.00,VWS V14.01,2013-10-26 20:50:00,
2013-10-26 16:56:00,52.4,30.0,30.11,SW,231,4.0,5.0,42,0.00,,---,0.01,60.00,VWS V14.01,2013-10-26 20:56:00,
2013-10-26 17:00:00,52.3,30.5,30.10,SW,232,0.0,6.0,43,0.00,,---,0.01,60.00,VWS V14.01,2013-10-26 21:00:00,
2013-10-26 17:01:00,52.3,30.5,30.10,SW,235,0.0,2.0,43,0.00,,---,0.01,60.00,VWS V14.01,2013-10-26 21:01:00,
2013-10-26 17:06:00,52.3,31.0,30.10,WSW,239,5.0,6.0,44,0.00,,---,0.01,60.00,VWS V14.01,2013-10-26 21:06:00,
2013-10-26 17:10:00,52.3,29.9,30.09,West,265,0.0,5.0,42,0.00,,---,0.01,63.00,VWS V14.01,2013-10-26 21:10:00,
2013-10-26 17:11:00,52.2,30.4,30.10,SW,234,0.0,3.0,43,0.00,,---,0.01,67.00,VWS V14.01,2013-10-26 21:11:00,
2013-10-26 17:16:00,52.2,29.8,30.09,West,261,0.0,5.0,42,0.00,,---,0.01,63.00,VWS V14.01,2013-10-26 21:16:00,
2013-10-26 17:20:00,52.3,29.9,30.10,SW,219,2.0,6.0,42,0.00,,---,0.01,40.00,VWS V14.01,2013-10-26 21:20:00,
2013-10-26 17:21:00,52.3,29.9,30.10,SW,220,3.0,4.0,42,0.00,,---,0.01,51.00,VWS V14.01,2013-10-26 21:21:00,
2013-10-26 17:26:00,52.3,29.3,30.10,SW,232,2.0,6.0,41,0.00,,---,0.01,44.00,VWS V14.01,2013-10-26 21:26:00,
2013-10-26 17:30:00,52.1,30.3,30.10,WNW,284,0.0,7.0,43,0.00,,---,0.01,26.00,VWS V14.01,2013-10-26 21:30:00,
2013-10-26 17:31:00,52.2,29.8,30.10,WSW,246,0.0,7.0,42,0.00,,---,0.01,26.00,VWS V14.01,2013-10-26 21:31:00,
2013-10-26 17:37:00,52.1,30.3,30.10,SW,231,5.0,7.0,43,0.00,,---,0.01,26.00,VWS V14.01,2013-10-26 21:37:00,
2013-10-26 17:40:00,51.9,30.1,30.10,SSW,211,0.0,9.0,43,0.00,,---,0.01,19.00,VWS V14.01,2013-10-26 21:40:00,
2013-10-26 17:42:00,52.0,29.6,30.10,West,267,1.0,9.0,42,0.00,,---,0.01,26.00,VWS V14.01,2013-10-26 21:42:00,
2013-10-26 17:47:00,51.9,30.1,30.10,WSW,240,5.0,9.0,43,0.00,,---,0.01,19.00,VWS V14.01,2013-10-26 21:47:00,
2013-10-26 17:50:00,51.7,29.9,30.10,SW,236,0.0,5.0,43,0.00,,---,0.01,14.00,VWS V14.01,2013-10-26 21:50:00,
2013-10-26 17:52:00,51.8,30.0,30.10,South,191,3.0,5.0,43,0.00,,---,0.01,16.00,VWS V14.01,2013-10-26 21:52:00,
2013-10-26 17:57:00,51.7,29.9,30.10,SW,236,0.0,5.0,43,0.00,,---,0.01,14.00,VWS V14.01,2013-10-26 21:57:00,
2013-10-26 18:00:00,51.5,30.3,30.10,WSW,252,0.0,6.0,44,0.00,,---,0.01,9.00,VWS V14.01,2013-10-26 22:00:00,
2013-10-26 18:02:00,51.6,31.0,30.10,SW,236,0.0,3.0,45,0.00,,---,0.01,12.00,VWS V14.01,2013-10-26 22:02:00,
2013-10-26 18:07:00,51.5,30.3,30.10,WSW,253,1.0,6.0,44,0.00,,---,0.01,9.00,VWS V14.01,2013-10-26 22:07:00,
2013-10-26 18:10:00,51.4,30.2,30.09,WSW,245,1.0,5.0,44,0.00,,---,0.01,5.00,VWS V14.01,2013-10-26 22:10:00,
2013-10-26 18:12:00,51.4,30.2,30.10,WSW,245,0.0,5.0,44,0.00,,---,0.01,7.00,VWS V14.01,2013-10-26 22:12:00,
2013-10-26 18:17:00,51.4,30.2,30.09,WSW,245,1.0,5.0,44,0.00,,---,0.01,5.00,VWS V14.01,2013-10-26 22:17:00,
2013-10-26 18:20:00,51.3,30.7,30.10,WSW,245,0.0,3.0,45,0.00,,---,0.01,0.00,VWS V14.01,2013-10-26 22:20:00,
2013-10-26 18:22:00,51.3,30.7,30.10,WSW,245,1.0,2.0,45,0.00,,---,0.01,5.00,VWS V14.01,2013-10-26 22:22:00,
2013-10-26 18:28:00,51.3,30.7,30.10,WSW,245,0.0,1.0,45,0.00,,---,0.01,0.00,VWS V14.01,2013-10-26 22:28:00,
2013-10-26 18:30:00,51.1,31.6,30.10,WSW,245,0.0,3.0,47,0.00,,---,0.01,0.00,VWS V14.01,2013-10-26 22:30:00,
2013-10-26 18:33:00,51.2,31.1,30.10,WSW,245,0.0,3.0,46,0.00,,---,0.01,0.00,VWS V14.01,2013-10-26 22:33:00,
2013-10-26 18:38:00,51.1,31.1,30.10,WSW,245,0.0,0.0,46,0.00,,---,0.01,0.00,VWS V14.01,2013-10-26 22:38:00,
2013-10-26 18:40:00,50.9,31.9,30.10,WSW,245,0.0,2.0,48,0.00,,---,0.01,0.00,VWS V14.01,2013-10-26 22:40:00,
2013-10-26 18:43:00,51.0,31.5,30.10,WSW,245,0.0,2.0,47,0.00,,---,0.01,0.00,VWS V14.01,2013-10-26 22:43:00,
2013-10-26 18:48:00,50.9,32.4,30.10,WSW,245,0.0,1.0,49,0.00,,---,0.01,0.00,VWS V14.01,2013-10-26 22:48:00,
2013-10-26 18:50:00,50.7,31.7,30.10,WSW,245,0.0,1.0,48,0.00,,---,0.01,0.00,VWS V14.01,2013-10-26 22:50:00,
2013-10-26 18:53:00,50.8,32.3,30.10,WSW,245,0.0,1.0,49,0.00,,---,0.01,0.00,VWS V14.01,2013-10-26 22:53:00,
2013-10-26 18:58:00,50.6,32.2,30.10,WSW,245,0.0,0.0,49,0.00,,---,0.01,0.00,VWS V14.01,2013-10-26 22:58:00,
2013-10-26 19:00:00,50.5,32.1,30.10,WSW,245,0.0,0.0,49,0.00,,---,0.01,0.00,VWS V14.01,2013-10-26 23:00:00,
2013-10-26 19:04:00,50.5,31.6,30.10,WSW,245,0.0,0.0,48,0.00,,---,0.01,0.00,VWS V14.01,2013-10-26 23:04:00,
2013-10-26 19:09:00,50.4,31.5,30.10,WSW,245,0.0,0.0,48,0.00,,---,0.01,0.00,VWS V14.01,2013-10-26 23:09:00,
2013-10-26 19:10:00,50.3,33.8,30.10,WSW,245,0.0,0.0,53,0.00,,---,0.01,0.00,VWS V14.01,2013-10-26 23:10:00,
2013-10-26 19:14:00,50.4,33.5,30.10,WSW,245,0.0,0.0,52,0.00,,---,0.01,0.00,VWS V14.01,2013-10-26 23:14:00,
2013-10-26 19:19:00,50.3,33.8,30.10,WSW,245,0.0,0.0,53,0.00,,---,0.01,0.00,VWS V14.01,2013-10-26 23:19:00,
2013-10-26 19:20:00,50.0,34.0,30.10,WSW,245,0.0,1.0,54,0.00,,---,0.01,0.00,VWS V14.01,2013-10-26 23:20:00,
2013-10-26 19:24:00,50.1,34.6,30.10,WSW,245,0.0,1.0,55,0.00,,---,0.01,0.00,VWS V14.01,2013-10-26 23:24:00,
2013-10-26 19:29:00,50.0,33.6,30.10,WSW,245,0.0,0.0,53,0.00,,---,0.01,0.00,VWS V14.01,2013-10-26 23:29:00,
2013-10-26 19:30:00,49.7,33.3,30.10,WSW,245,0.0,1.0,53,0.00,,---,0.01,0.00,VWS V14.01,2013-10-26 23:30:00,
2013-10-26 19:34:00,49.8,32.9,30.10,WSW,245,0.0,1.0,52,0.00,,---,0.01,0.00,VWS V14.01,2013-10-26 23:34:00,
2013-10-26 19:39:00,49.7,32.8,30.10,WSW,245,0.0,1.0,52,0.00,,---,0.01,0.00,VWS V14.01,2013-10-26 23:39:00,
2013-10-26 19:40:00,49.8,31.4,30.10,WSW,245,0.0,1.0,49,0.00,,---,0.01,0.00,VWS V14.01,2013-10-26 23:40:00,
2013-10-26 19:45:00,49.8,31.9,30.10,WSW,245,0.0,1.0,50,0.00,,---,0.01,0.00,VWS V14.01,2013-10-26 23:45:00,
2013-10-26 19:50:00,49.8,31.4,30.10,WSW,245,0.0,0.0,49,0.00,,---,0.01,0.00,VWS V14.01,2013-10-26 23:50:00,
2013-10-26 19:55:00,49.9,31.0,30.10,WSW,250,0.0,3.0,48,0.00,,---,0.01,0.00,VWS V14.01,2013-10-26 23:55:00,
2013-10-26 20:00:00,50.1,31.2,30.10,WSW,250,0.0,1.0,48,0.00,,---,0.01,0.00,VWS V14.01,2013-10-27 00:00:00,
2013-10-26 20:05:00,50.1,31.2,30.10,SSW,207,2.0,2.0,48,0.00,,---,0.01,0.00,VWS V14.01,2013-10-27 00:05:00,
2013-10-26 20:10:00,50.3,31.4,30.09,SSW,195,0.0,2.0,48,0.00,,---,0.01,0.00,VWS V14.01,2013-10-27 00:10:00,
2013-10-26 20:15:00,50.4,31.5,30.09,SSW,200,0.0,2.0,48,0.00,,---,0.01,0.00,VWS V14.01,2013-10-27 00:15:00,
2013-10-26 20:20:00,50.4,31.0,30.09,SSW,203,0.0,1.0,47,0.00,,---,0.01,0.00,VWS V14.01,2013-10-27 00:20:00,
2013-10-26 20:26:00,50.4,31.5,30.09,WSW,244,0.0,3.0,48,0.00,,---,0.01,0.00,VWS V14.01,2013-10-27 00:26:00,
2013-10-26 20:30:00,50.4,31.5,30.09,WSW,244,0.0,4.0,48,0.00,,---,0.01,0.00,VWS V14.01,2013-10-27 00:30:00,
2013-10-26 20:31:00,50.5,32.1,30.09,WSW,244,2.0,4.0,49,0.00,,---,0.01,0.00,VWS V14.01,2013-10-27 00:31:00,
2013-10-26 20:36:00,50.5,31.6,30.09,WSW,244,0.0,4.0,48,0.00,,---,0.01,0.00,VWS V14.01,2013-10-27 00:36:00,
2013-10-26 20:40:00,50.4,31.5,30.09,WSW,244,0.0,2.0,48,0.00,,---,0.01,0.00,VWS V14.01,2013-10-27 00:40:00,
2013-10-26 20:41:00,50.4,31.5,30.09,WSW,244,0.0,1.0,48,0.00,,---,0.01,0.00,VWS V14.01,2013-10-27 00:41:00,
2013-10-26 20:46:00,50.4,31.5,30.09,WSW,244,0.0,2.0,48,0.00,,---,0.01,0.00,VWS V14.01,2013-10-27 00:46:00,
2013-10-26 20:50:00,50.4,31.5,30.09,WSW,244,0.0,2.0,48,0.00,,---,0.01,0.00,VWS V14.01,2013-10-27 00:50:00,
2013-10-26 20:51:00,50.4,31.5,30.09,WSW,244,0.0,1.0,48,0.00,,---,0.01,0.00,VWS V14.01,2013-10-27 00:51:00,
2013-10-26 20:56:00,50.4,31.0,30.09,WSW,244,0.0,2.0,47,0.00,,---,0.01,0.00,VWS V14.01,2013-10-27 00:56:00,
2013-10-26 21:00:00,50.4,31.5,30.09,WSW,244,0.0,2.0,48,0.00,,---,0.01,0.00,VWS V14.01,2013-10-27 01:00:00,
2013-10-26 21:01:00,50.4,31.5,30.09,WSW,244,0.0,1.0,48,0.00,,---,0.01,0.00,VWS V14.01,2013-10-27 01:01:00,
2013-10-26 21:07:00,50.4,31.5,30.09,WSW,244,0.0,2.0,48,0.00,,---,0.01,0.00,VWS V14.01,2013-10-27 01:07:00,
2013-10-26 21:10:00,50.3,31.4,30.08,WSW,244,0.0,2.0,48,0.00,,---,0.01,0.00,VWS V14.01,2013-10-27 01:10:00,
2013-10-26 21:12:00,50.3,30.9,30.09,WSW,244,0.0,2.0,47,0.00,,---,0.01,0.00,VWS V14.01,2013-10-27 01:12:00,
2013-10-26 21:17:00,50.3,31.4,30.08,WSW,244,0.0,2.0,48,0.00,,---,0.01,0.00,VWS V14.01,2013-10-27 01:17:00,
2013-10-26 21:20:00,50.3,31.4,30.08,WSW,244,2.0,4.0,48,0.00,,---,0.01,0.00,VWS V14.01,2013-10-27 01:20:00,
2013-10-26 21:22:00,50.3,31.4,30.09,WSW,244,0.0,3.0,48,0.00,,---,0.01,0.00,VWS V14.01,2013-10-27 01:22:00,
2013-10-26 21:27:00,50.3,31.4,30.08,WSW,244,2.0,3.0,48,0.00,,---,0.01,0.00,VWS V14.01,2013-10-27 01:27:00,
2013-10-26 21:30:00,50.3,31.4,30.09,WSW,244,0.0,2.0,48,0.00,,---,0.01,0.00,VWS V14.01,2013-10-27 01:30:00,
2013-10-26 21:32:00,50.3,31.4,30.09,WSW,244,0.0,2.0,48,0.00,,---,0.01,0.00,VWS V14.01,2013-10-27 01:32:00,
2013-10-26 21:37:00,50.3,31.4,30.09,WSW,244,0.0,2.0,48,0.00,,---,0.01,0.00,VWS V14.01,2013-10-27 01:37:00,
2013-10-26 21:40:00,50.3,31.4,30.09,WSW,244,2.0,2.0,48,0.00,,---,0.01,0.00,VWS V14.01,2013-10-27 01:40:00,
2013-10-26 21:43:00,50.3,31.4,30.09,WSW,244,0.0,2.0,48,0.00,,---,0.01,0.00,VWS V14.01,2013-10-27 01:43:00,
2013-10-26 21:48:00,50.3,31.4,30.09,WSW,244,0.0,2.0,48,0.00,,---,0.01,0.00,VWS V14.01,2013-10-27 01:48:00,
2013-10-26 21:50:00,50.3,31.9,30.09,WSW,244,0.0,4.0,49,0.00,,---,0.01,0.00,VWS V14.01,2013-10-27 01:50:00,
2013-10-26 21:53:00,50.3,31.9,30.09,WSW,244,0.0,2.0,49,0.00,,---,0.01,0.00,VWS V14.01,2013-10-27 01:53:00,
2013-10-26 21:58:00,50.3,31.9,30.09,WSW,244,0.0,1.0,49,0.00,,---,0.01,0.00,VWS V14.01,2013-10-27 01:58:00,
2013-10-26 22:00:00,50.2,31.8,30.09,WSW,244,0.0,2.0,49,0.00,,---,0.01,0.00,VWS V14.01,2013-10-27 02:00:00,
2013-10-26 22:03:00,50.2,31.8,30.09,WSW,244,0.0,2.0,49,0.00,,---,0.01,0.00,VWS V14.01,2013-10-27 02:03:00,
2013-10-26 22:08:00,50.2,32.3,30.09,WSW,244,0.0,1.0,50,0.00,,---,0.01,0.00,VWS V14.01,2013-10-27 02:08:00,
2013-10-26 22:10:00,50.1,32.2,30.09,WSW,244,0.0,2.0,50,0.00,,---,0.01,0.00,VWS V14.01,2013-10-27 02:10:00,
2013-10-26 22:13:00,50.2,32.3,30.09,WSW,244,0.0,2.0,50,0.00,,---,0.01,0.00,VWS V14.01,2013-10-27 02:13:00,
2013-10-26 22:18:00,50.1,32.2,30.09,WSW,244,0.0,1.0,50,0.00,,---,0.01,0.00,VWS V14.01,2013-10-27 02:18:00,
2013-10-26 22:20:00,50.0,32.6,30.10,WSW,239,1.0,3.0,51,0.00,,---,0.01,0.00,VWS V14.01,2013-10-27 02:20:00,
2013-10-26 22:24:00,50.1,32.2,30.10,WSW,244,0.0,1.0,50,0.00,,---,0.01,0.00,VWS V14.01,2013-10-27 02:24:00,
2013-10-26 22:29:00,50.0,32.1,30.10,WSW,239,0.0,2.0,50,0.00,,---,0.01,0.00,VWS V14.01,2013-10-27 02:29:00,
2013-10-26 22:30:00,49.9,32.0,30.11,SW,231,0.0,4.0,50,0.00,,---,0.01,0.00,VWS V14.01,2013-10-27 02:30:00,
2013-10-26 22:34:00,50.0,32.1,30.11,SW,228,2.0,3.0,50,0.00,,---,0.01,0.00,VWS V14.01,2013-10-27 02:34:00,
2013-10-26 22:39:00,49.9,32.5,30.12,SW,231,0.0,1.0,51,0.00,,---,0.01,0.00,VWS V14.01,2013-10-27 02:39:00,
2013-10-26 22:40:00,49.9,33.0,30.12,WSW,251,0.0,15.0,52,0.00,,---,0.01,0.00,VWS V14.01,2013-10-27 02:40:00,
2013-10-26 22:44:00,49.9,32.5,30.12,SW,228,3.0,5.0,51,0.00,,---,0.01,0.00,VWS V14.01,2013-10-27 02:44:00,
2013-10-26 22:49:00,50.0,33.6,30.12,WSW,248,4.0,10.0,53,0.00,,---,0.01,0.00,VWS V14.01,2013-10-27 02:49:00,
2013-10-26 22:50:00,50.3,34.3,30.12,SSW,207,4.0,11.0,54,0.00,,---,0.01,0.00,VWS V14.01,2013-10-27 02:50:00,
2013-10-26 22:54:00,50.2,33.7,30.12,West,264,2.0,10.0,53,0.00,,---,0.01,0.00,VWS V14.01,2013-10-27 02:54:00,
2013-10-26 23:00:00,50.3,34.8,30.11,SSW,213,1.0,17.0,55,0.00,,---,0.01,0.00,VWS V14.01,2013-10-27 03:00:00,
2013-10-26 23:05:00,50.5,35.4,30.11,West,277,3.0,17.0,56,0.00,,---,0.01,0.00,VWS V14.01,2013-10-27 03:05:00,
2013-10-26 23:10:00,50.5,35.4,30.11,WNW,293,4.0,13.0,56,0.00,,---,0.01,0.00,VWS V14.01,2013-10-27 03:10:00,
2013-10-26 23:15:00,50.6,35.0,30.12,WSW,240,2.0,13.0,55,0.00,,---,0.01,0.00,VWS V14.01,2013-10-27 03:15:00,
2013-10-26 23:20:00,50.6,35.0,30.11,WSW,238,2.0,6.0,55,0.00,,---,0.01,0.00,VWS V14.01,2013-10-27 03:20:00,
2013-10-26 23:25:00,50.6,35.0,30.12,SW,233,4.0,7.0,55,0.00,,---,0.01,0.00,VWS V14.01,2013-10-27 03:25:00,
2013-10-26 23:30:00,50.6,35.0,30.12,SW,234,0.0,3.0,55,0.00,,---,0.01,0.00,VWS V14.01,2013-10-27 03:30:00,
2013-10-26 23:35:00,50.6,35.0,30.12,SW,234,0.0,3.0,55,0.00,,---,0.01,0.00,VWS V14.01,2013-10-27 03:35:00,
2013-10-26 23:40:00,50.6,34.6,30.12,SW,234,2.0,4.0,54,0.00,,---,0.01,0.00,VWS V14.01,2013-10-27 03:40:00,
2013-10-26 23:46:00,50.5,35.0,30.11,SW,234,0.0,4.0,55,0.00,,---,0.01,0.00,VWS V14.01,2013-10-27 03:46:00,
2013-10-26 23:50:00,50.4,34.9,30.11,WSW,248,0.0,6.0,55,0.00,,---,0.01,0.00,VWS V14.01,2013-10-27 03:50:00,
2013-10-26 23:51:00,50.5,35.0,30.11,SW,233,0.0,6.0,55,0.00,,---,0.01,0.00,VWS V14.01,2013-10-27 03:51:00,
2013-10-26 23:56:00,50.4,34.9,30.11,WSW,248,0.0,6.0,55,0.00,,---,0.01,0.00,VWS V14.01,2013-10-27 03:56:00,